Terug naar catalogus

CZ-6A DEB

ActiefSSO
NORAD 56642·DEBRIS·🇨🇳 China

Gelanceerd Nov 11, 2022 vanaf Taiyuan Satellite Launch Center

Loading…

Volgende Passages (komende 24 uur)

TLE

VersSource: Space-Track

Epoch: Sep 14, 2026, 03:49 UTC

1 56642U 22151AFS 26257.15914538  .00000027  00000-0  50127-4 0  9990
2 56642  98.9253 220.8253 0126334 202.5367 157.0216 13.93375030172317

Volg CZ-6A DEB in realtime met AllMySat

Download on the App Store